CW0762 Weather Reports


Display with metric or nautical units.
time (UTC)temp
F
wind
direction
speed
MPH
gust
MPH
rain 1hr
in
rain 24hr
in
rain mn
in
humidity
%
barometer
mb
20260506023013 69 287 1.0 4.0 0.00 0.00 0.00 73 1008.5
20260506021508 69 281 0.0 3.0 0.00 0.00 0.00 72 1007.9
20260506020007 69 283 0.0 4.0 0.00 0.00 0.00 71 1007.7
20260506014502 70 278 0.0 2.0 0.00 0.00 0.00 70 1007.2
20260506013002 70 275 0.0 5.0 0.00 0.00 0.00 68 1007.1
20260506011610 71 279 0.0 3.0 0.00 0.00 0.00 68 1007.1
20260506010059 72 262 2.0 6.0 0.00 0.00 0.00 67 1006.7
20260506004556 73 274 0.0 5.0 0.00 0.00 0.00 65 1006.6
20260506003057 74 286 1.0 4.0 0.00 0.00 0.00 65 1006.1
20260506001555 75 264 1.0 6.0 0.00 0.00 0.00 64 1005.5
20260506000055 76 355 0.0 4.0 0.00 0.00 0.00 64 1005.7
20260505234556 78 230 1.0 5.0 0.00 0.00 0.00 62 1005.5
20260505233053 79 360 0.0 3.0 0.00 0.00 0.00 61 1005.2
20260505231553 81 303 0.0 5.0 0.00 0.00 0.00 60 1005.1
20260505224553 83 63 0.0 3.0 0.00 0.00 0.00 55 1004.5
20260505223106 85 290 0.0 3.0 0.00 0.00 0.00 53 1004.5
20260505221551 86 5 0.0 4.0 0.00 0.00 0.00 47 1004.2
20260505220051 87 288 0.0 6.0 0.00 0.00 0.00 48 1004.0
20260505214550 89 281 1.0 6.0 0.00 0.00 0.00 45 1004.2
20260505213057 91 119 2.0 7.0 0.00 0.00 0.00 47 1003.9
20260505211550 91 80 0.0 4.0 0.00 0.00 0.00 48 1004.2
20260505210047 90 109 2.0 12.0 0.00 0.00 0.00 48 1004.2
20260505204545 90 118 3.0 11.0 0.00 0.00 0.00 50 1004.4
20260505203051 90 119 3.0 9.0 0.00 0.00 0.00 52 1004.5
20260505201543 90 114 5.0 10.0 0.00 0.00 0.00 50 1004.8
20260505200039 88 118 1.0 9.0 0.00 0.00 0.00 56 1004.9
20260505194537 87 120 4.0 8.0 0.00 0.00 0.00 57 1004.9
20260505193035 87 131 3.0 11.0 0.00 0.00 0.00 59 1005.2
20260505191532 86 137 3.0 9.0 0.00 0.00 0.00 61 1004.9
20260505190033 85 156 2.0 10.0 0.00 0.00 0.00 63 1005.0
20260505184526 83 145 4.0 11.0 0.00 0.00 0.00 64 1005.0
20260505183025 83 43 4.0 12.0 0.00 0.00 0.00 65 1005.3
20260505181523 83 125 3.0 8.0 0.00 0.00 0.00 66 1005.1
20260505180022 83 134 3.0 11.0 0.00 0.00 0.00 65 1005.3
20260505174521 82 122 3.0 10.0 0.00 0.00 0.00 66 1005.2
20260505173035 82 49 2.0 9.0 0.00 0.00 0.00 69 1005.1
20260505171516 81 135 2.0 13.0 0.00 0.00 0.00 70 1005.2
20260505170022 80 55 3.0 10.0 0.00 0.00 0.00 71 1005.4
20260505164527 79 112 3.0 12.0 0.00 0.00 0.00 71 1005.3
20260505163013 79 133 4.0 9.0 0.00 0.00 0.00 73 1005.1
20260505161506 78 30 2.0 13.0 0.00 0.00 0.00 75 1005.0
20260505153115 76 133 3.0 10.0 0.00 0.00 0.00 78 1005.1
20260505151601 76 126 2.0 9.0 0.00 0.00 0.00 79 1004.9
20260505124550 70 130 2.0 8.0 0.00 0.00 0.00 88 1004.5
20260505123048 70 134 3.0 11.0 0.00 0.00 0.00 88 1004.4
20260505121548 70 138 2.0 8.0 0.00 0.00 0.00 88 1004.1
20260505120047 70 47 2.0 9.0 0.00 0.00 0.00 88 1004.1
20260505114547 70 127 3.0 12.0 0.00 0.00 0.00 88 1004.2
20260505113046 70 55 2.0 11.0 0.00 0.00 0.00 88 1004.0
20260505111553 70 136 2.0 7.0 0.00 0.00 0.00 88 1003.9
20260505101541 70 51 2.0 9.0 0.00 0.00 0.00 87 1003.9
20260505100049 71 40 3.0 13.0 0.00 0.00 0.00 86 1004.0
20260505094538 71 44 3.0 10.0 0.00 0.00 0.00 85 1004.0
20260505093036 71 67 3.0 9.0 0.00 0.00 0.00 85 1004.2
20260505091550 71 61 2.0 12.0 0.00 0.00 0.00 84 1004.3
20260505090050 71 123 2.0 13.0 0.00 0.00 0.00 84 1004.3
20260505084537 71 144 2.0 11.0 0.00 0.00 0.00 83 1004.3
20260505083040 72 101 2.0 11.0 0.00 0.00 0.00 82 1004.3
20260505081548 72 127 2.0 10.0 0.00 0.00 0.00 81 1004.4
20260505080038 72 24 2.0 7.0 0.00 0.00 0.00 80 1004.4
20260505074526 72 80 2.0 6.0 0.00 0.00 0.00 79 1004.6
20260505073022 73 59 2.0 7.0 0.00 0.00 0.00 78 1005.0
20260505071526 73 57 2.0 8.0 0.00 0.00 0.00 77 1005.3
20260505070023 73 65 1.0 9.0 0.00 0.00 0.00 76 1005.5
20260505064515 73 62 3.0 9.0 0.00 0.00 0.00 75 1005.7
20260505063015 74 119 3.0 8.0 0.00 0.00 0.00 74 1005.8
20260505061523 74 55 2.0 12.0 0.00 0.00 0.00 73 1005.9
20260505060012 74 53 3.0 8.0 0.00 0.00 0.00 72 1006.0
20260505054518 74 54 1.0 9.0 0.00 0.00 0.00 72 1005.9
20260505053009 74 51 2.0 9.0 0.00 0.00 0.00 72 1005.9
20260505051506 74 55 2.0 8.0 0.00 0.00 0.00 72 1006.0
20260505041504 75 44 3.0 10.0 0.00 0.00 0.00 71 1006.1
20260505040003 75 60 3.0 8.0 0.00 0.00 0.00 71 1006.3
20260505034503 75 42 3.0 7.0 0.00 0.00 0.00 70 1006.2
20260505033003 75 33 3.0 9.0 0.00 0.00 0.00 70 1006.1
20260505031502 75 69 2.0 9.0 0.00 0.00 0.00 70 1006.3
20260505030002 75 41 3.0 9.0 0.00 0.00 0.00 70 1006.3
20260505024504 75 26 2.0 6.0 0.00 0.00 0.00 69 1006.5